Showing default

KORSAT-3, 63630

Orbit data source: Space-Track

KORSAT-3, 63630 is a payload satellite owned by DAPA (KR) in LEO that was launched on Tue, 22 Apr 2025 UTC via an FALCON 9 launch vehicle from the Air Force Eastern Test Range (AFETR). Payload-class satellites include a variety of spacecraft equipped with specific instruments for various scientific and technological missions. These include communications satellites like Starlink; space stations such as the ISS; scientific satellites like the Hubble; Earth observation satellites from companies like Planet Labs, Umbra, and HawkEye 360; GPS; miniature CubeSats for education and research; and military/defense satellites.

Loading next visibility...
Identifier
63630, 2025-081A
Orbit
LEO
Country
Flag of KRKR / SKOR
Related business
Manufacturer
KAI
Mission
Operational Defense Radar Imaging
Bus & Motor
CAS500?, Unknown motor
Mass
~800 kg wet, ~750 kg dry
Launch date (UTC)
2025-04-22 (11 months ago)
Launch vehicle
FALCON 9
Launch site
Air Force Eastern Test Range (AFETR)
Object type
Payload
Rocket body
Debris
Shape & HBR
Hex Box + 3 Pan, 3.9 m
Radar Cross Section
10.467 m², Large (>1 m²)

Expand to show TLE details & history
Last TLE update: 8 hours ago

TLE from 8 hours ago
0 KORSAT-3
1 63630U 25081A   26073.55535161  .00005307  00000-0  44253-3 0  9999
2 63630  45.4109 106.4371 0009353  59.5601 300.6201 14.99626167 48983
Epoch: 2026-03-14T13:19Z
TLE epoch observation values (Epoch: 2026-03-14T13:19:42.379Z)
Latitude
0.00004°
Longitude
94.33571°
Altitude
564.79 km
Speed
7.582 km/s
True Right ascension
07h 05m 44s
True Declination
0° 00' 00"
Sunlit
Object was in daylight at epoch
Visualization orbit readout
Latitude
Unknown
Longitude
Unknown
Altitude
Unknown
Speed
Unknown
Apparent Right ascension
Unknown
Apparent Declination
Unknown
Sunlit
N/A
Visualization observer readout
Local Sidereal Time
01:25:51
Azimuth
Unknown
Elevation
Unknown
Doppler factor
Unknown
Orbital elements
Apogee altitude
576.07 km
Perigee altitude
563.074 km
Semi-major axis
6,947.709 km
Eccentricity
0.00094
Inclination
45.4109°
RAAN
106.4371°
Arg. of periapsis
59.5601°
True anomaly
300.52781°
Mean anomaly
300.6201°
Eccentric anomaly
300.57396°
Mean motion
3.74784 °/min
Orbital period
96.06 mins
BSTAR
0.00044253
Loading maneuver chart data...
Computing Atmospheric mass density...
Loading historical data...
Loading historical data...
Loading historical data...
Loading historical data...
Loading historical data...
Loading historical data...
Loading historical data...
Other satellites on launch #81 in the year 2025 (2025-04-22 UTC)

Documentation

Showing up to 5 results
|